When you browse on this site, cookies collect data to enhance your experience and personalize the content and advertising you see.
Visit our Privacy Policy to learn more. By continuing to use the site, you agree to this use of cookies and data.
  • In Hungary
  • List of Countries
  • For 7 days
  • Water Temperature
  • Satellite Maps
  • Weather Map
  • News
  • Weather Widgets
  • user-avatar
    Login

    Hourly Weather Trushki

    Today, 21 May, Tuesday

    Time Temperature Precipitation Wind Pressure Humidity
    00:00 +16°C° 0 mm 2 mps 756 mmHg 79%
    01:00 +16°C° 0 mm 2 mps 756 mmHg 82%
    02:00 +15°C° 0 mm 1 mps 756 mmHg 86%
    03:00 +15°C° 0 mm 2 mps 756 mmHg 87%
    04:00 +15°C° 0 mm 2 mps 756 mmHg 87%
    05:00 +16°C° 0 mm 2 mps 756 mmHg 87%
    06:00 +17°C° 0 mm 2 mps 756 mmHg 82%
    07:00 +19°C° 0 mm 2 mps 755 mmHg 77%
    08:00 +21°C° 0 mm 3 mps 755 mmHg 73%
    09:00 +22°C° 0 mm 3 mps 755 mmHg 69%
    10:00 +24°C° 0 mm 3 mps 755 mmHg 66%
    11:00 +25°C° 0 mm 3 mps 755 mmHg 62%
    12:00 +25°C° 0 mm 2 mps 755 mmHg 62%
    13:00 +25°C° 0 mm 2 mps 754 mmHg 62%
    14:00 +26°C° 0 mm 2 mps 754 mmHg 62%
    15:00 +25°C° 0.1 mm 1 mps 754 mmHg 66%
    16:00 +24°C° 0.1 mm 1 mps 754 mmHg 69%
    17:00 +24°C° 0.1 mm 1 mps 753 mmHg 73%
    18:00 +23°C° 0 mm 1 mps 753 mmHg 76%
    19:00 +22°C° 0 mm 1 mps 753 mmHg 80%
    20:00 +21°C° 0 mm 1 mps 753 mmHg 83%
    21:00 +20°C° 0.5 mm 1 mps 753 mmHg 86%
    22:00 +19°C° 0.5 mm 1 mps 753 mmHg 88%
    23:00 +18°C° 0.5 mm 1 mps 753 mmHg 90%

    Tomorrow, 22 May, Wednesday

    Time Temperature Precipitation Wind Pressure Humidity
    00:00 +16°C° 0.3 mm 1 mps 753 mmHg 91%
    01:00 +16°C° 0.3 mm 2 mps 753 mmHg 92%
    02:00 +15°C° 0.3 mm 2 mps 753 mmHg 94%
    03:00 +15°C° 0 mm 2 mps 752 mmHg 94%
    04:00 +15°C° 0 mm 2 mps 752 mmHg 94%
    05:00 +16°C° 0 mm 2 mps 752 mmHg 94%
    06:00 +17°C° 0 mm 2 mps 752 mmHg 90%
    07:00 +18°C° 0 mm 2 mps 752 mmHg 86%
    08:00 +20°C° 0 mm 2 mps 752 mmHg 81%
    09:00 +21°C° 0.3 mm 2 mps 752 mmHg 75%
    10:00 +23°C° 0.3 mm 2 mps 751 mmHg 68%
    11:00 +25°C° 0.3 mm 2 mps 751 mmHg 62%
    12:00 +26°C° 0 mm 1 mps 751 mmHg 57%
    13:00 +27°C° 0 mm 1 mps 751 mmHg 53%
    14:00 +26°C° 0 mm 0 mps 750 mmHg 48%
    15:00 +27°C° 0 mm 1 mps 750 mmHg 50%
    16:00 +27°C° 0 mm 1 mps 750 mmHg 51%
    17:00 +27°C° 0 mm 1 mps 749 mmHg 52%
    18:00 +25°C° 0.2 mm 1 mps 749 mmHg 61%
    19:00 +23°C° 0.2 mm 1 mps 749 mmHg 69%
    20:00 +21°C° 0.2 mm 1 mps 749 mmHg 78%
    21:00 +20°C° 0.6 mm 1 mps 749 mmHg 81%
    22:00 +19°C° 0.6 mm 1 mps 749 mmHg 84%
    23:00 +16°C° 0.6 mm 0 mps 750 mmHg 87%

    Day after tomorrow, 23 May, Thursday

    Time Temperature Precipitation Wind Pressure Humidity
    00:00 +16°C° 0 mm 0 mps 750 mmHg 88%
    01:00 +16°C° 0 mm 1 mps 749 mmHg 89%
    02:00 +16°C° 0 mm 1 mps 749 mmHg 89%
    03:00 +16°C° 0 mm 1 mps 750 mmHg 90%
    04:00 +16°C° 0 mm 1 mps 750 mmHg 91%
    05:00 +16°C° 0 mm 2 mps 750 mmHg 92%
    06:00 +17°C° 0 mm 2 mps 750 mmHg 90%
    07:00 +17°C° 0 mm 3 mps 750 mmHg 88%
    08:00 +18°C° 0 mm 3 mps 750 mmHg 86%
    09:00 +18°C° 0 mm 3 mps 751 mmHg 86%
    10:00 +17°C° 0 mm 4 mps 751 mmHg 85%
    11:00 +17°C° 0 mm 4 mps 751 mmHg 85%
    12:00 +18°C° 0 mm 4 mps 751 mmHg 80%
    13:00 +19°C° 0 mm 4 mps 751 mmHg 74%
    14:00 +20°C° 0 mm 4 mps 751 mmHg 69%
    15:00 +21°C° 0 mm 4 mps 751 mmHg 67%
    16:00 +21°C° 0 mm 4 mps 751 mmHg 66%
    17:00 +21°C° 0 mm 4 mps 751 mmHg 64%
    18:00 +20°C° 0 mm 4 mps 751 mmHg 67%
    19:00 +18°C° 0 mm 3 mps 752 mmHg 70%
    20:00 +17°C° 0 mm 3 mps 752 mmHg 73%
    21:00 +16°C° 0 mm 3 mps 752 mmHg 70%
    22:00 +14°C° 0 mm 3 mps 752 mmHg 67%
    23:00 +13°C° 0 mm 3 mps 753 mmHg 65%

    24 May, Friday

    Time Temperature Precipitation Wind Pressure Humidity
    00:00 +12°C° 0 mm 3 mps 753 mmHg 65%
    01:00 +12°C° 0 mm 3 mps 753 mmHg 65%
    02:00 +11°C° 0 mm 3 mps 753 mmHg 65%
    03:00 +11°C° 0 mm 3 mps 753 mmHg 67%
    04:00 +11°C° 0 mm 3 mps 752 mmHg 69%
    05:00 +11°C° 0 mm 3 mps 752 mmHg 72%
    06:00 +13°C° 0 mm 3 mps 752 mmHg 71%
    07:00 +14°C° 0 mm 3 mps 752 mmHg 71%
    08:00 +16°C° 0 mm 3 mps 752 mmHg 71%
    09:00 +18°C° 0.2 mm 3 mps 752 mmHg 72%
    10:00 +19°C° 0.2 mm 3 mps 752 mmHg 72%
    11:00 +21°C° 0.2 mm 3 mps 751 mmHg 73%
    12:00 +21°C° 0.8 mm 3 mps 751 mmHg 75%
    13:00 +21°C° 0.8 mm 3 mps 751 mmHg 76%
    14:00 +21°C° 0.8 mm 2 mps 750 mmHg 78%
    15:00 +21°C° 2.5 mm 2 mps 750 mmHg 79%
    16:00 +22°C° 2.5 mm 1 mps 750 mmHg 81%
    17:00 +22°C° 2.5 mm 1 mps 749 mmHg 82%
    18:00 +21°C° 1 mm 1 mps 749 mmHg 85%
    19:00 +20°C° 1 mm 1 mps 749 mmHg 88%
    20:00 +19°C° 1 mm 1 mps 749 mmHg 92%
    21:00 +18°C° 0.1 mm 1 mps 749 mmHg 93%
    22:00 +16°C° 0.1 mm 2 mps 749 mmHg 95%
    23:00 +15°C° 0.1 mm 2 mps 749 mmHg 97%

    25 May, Saturday

    Time Temperature Precipitation Wind Pressure Humidity
    00:00 +15°C° 0.4 mm 2 mps 749 mmHg 97%
    01:00 +14°C° 0.4 mm 2 mps 749 mmHg 98%
    02:00 +12°C° 0.4 mm 3 mps 749 mmHg 98%
    03:00 +12°C° 0.1 mm 3 mps 749 mmHg 97%
    04:00 +13°C° 0.1 mm 2 mps 749 mmHg 97%
    05:00 +12°C° 0.1 mm 2 mps 748 mmHg 96%
    06:00 +13°C° 0.1 mm 2 mps 748 mmHg 94%
    07:00 +13°C° 0.1 mm 2 mps 748 mmHg 93%
    08:00 +13°C° 0.1 mm 2 mps 748 mmHg 91%
    09:00 +14°C° 0 mm 2 mps 748 mmHg 86%
    10:00 +15°C° 0 mm 2 mps 748 mmHg 82%
    11:00 +16°C° 0 mm 2 mps 748 mmHg 77%
    12:00 +17°C° 0 mm 2 mps 747 mmHg 69%
    13:00 +18°C° 0 mm 2 mps 747 mmHg 61%
    14:00 +20°C° 0 mm 2 mps 747 mmHg 53%
    15:00 +20°C° 0 mm 2 mps 746 mmHg 54%
    16:00 +20°C° 0 mm 2 mps 746 mmHg 55%
    17:00 +20°C° 0 mm 2 mps 746 mmHg 57%
    18:00 +18°C° 0 mm 2 mps 745 mmHg 63%
    19:00 +16°C° 0 mm 2 mps 745 mmHg 69%
    20:00 +15°C° 0 mm 1 mps 745 mmHg 75%
    21:00 +14°C° 0 mm 1 mps 745 mmHg 77%
    22:00 +12°C° 0 mm 1 mps 745 mmHg 79%
    23:00 +11°C° 0 mm 1 mps 745 mmHg 82%

    26 May, Sunday

    Time Temperature Precipitation Wind Pressure Humidity
    00:00 +11°C° 0.1 mm 1 mps 745 mmHg 85%
    01:00 +10°C° 0.1 mm 2 mps 745 mmHg 89%
    02:00 +10°C° 0.1 mm 2 mps 744 mmHg 92%
    03:00 +10°C° 0.4 mm 2 mps 744 mmHg 93%
    04:00 +10°C° 0.4 mm 3 mps 744 mmHg 94%
    05:00 +10°C° 0.4 mm 3 mps 744 mmHg 96%
    06:00 +10°C° 0 mm 3 mps 744 mmHg 94%
    07:00 +10°C° 0 mm 3 mps 744 mmHg 91%
    08:00 +11°C° 0 mm 4 mps 744 mmHg 89%
    09:00 +12°C° 0 mm 3 mps 743 mmHg 81%
    10:00 +13°C° 0 mm 3 mps 743 mmHg 73%
    11:00 +14°C° 0 mm 3 mps 743 mmHg 65%
    12:00 +14°C° 0.3 mm 4 mps 743 mmHg 69%
    13:00 +14°C° 0.3 mm 4 mps 742 mmHg 72%
    14:00 +13°C° 0.3 mm 5 mps 742 mmHg 76%
    15:00 +14°C° 0.2 mm 5 mps 742 mmHg 75%
    16:00 +14°C° 0.2 mm 5 mps 741 mmHg 75%
    17:00 +14°C° 0.2 mm 5 mps 741 mmHg 74%
    18:00 +13°C° 0.2 mm 4 mps 741 mmHg 80%
    19:00 +12°C° 0.2 mm 3 mps 741 mmHg 85%
    20:00 +12°C° 0.2 mm 2 mps 741 mmHg 90%
    21:00 +10°C° 0 mm 2 mps 741 mmHg 92%
    22:00 +8°C° 0 mm 2 mps 741 mmHg 94%
    23:00 +7°C° 0 mm 2 mps 741 mmHg 96%
    Show more